Zurück zum Katalog

HULIANWANG DIGUI-106

AktivKommunikationLEO
NORAD 66916·PAYLOAD·🇨🇳 China

Gestartet Dec 6, 2025 von Wenchang Space Launch Site

Loading…

Nächste Überflüge (nächste 24 Stunden)

TLE

AktuellSource: Space-Track

Epoche: Sep 14, 2026, 04:19 UTC

1 66916U 25285B   26257.18031045 -.00000089  00000-0  75546-4 0  9993
2 66916  50.0056 187.0047 0000212 227.6688 132.4166 13.29325658 37891

Verfolge HULIANWANG DIGUI-106 in Echtzeit mit AllMySat

Download on the App Store